TimeEST,TemperatureF,Dew PointF,Humidity,Sea Level PressureIn,VisibilityMPH,Wind Direction,Wind SpeedMPH,Gust SpeedMPH,PrecipitationIn,Events,Conditions,WindDirDegrees,DateUTC
12:41 AM,46.4,37.4,71,29.56,10.0,West,23.0,32.2,N/A,,Overcast,270,2013-11-18 05:41:00
12:51 AM,46.4,35.6,66,29.56,10.0,West,23.0,34.5,N/A,,Overcast,280,2013-11-18 05:51:00
12:53 AM,46.0,35.1,66,29.57,10.0,West,26.5,33.4,N/A,,Overcast,280,2013-11-18 05:53:00
1:53 AM,45.0,34.0,65,29.60,10.0,West,23.0,28.8,N/A,,Overcast,270,2013-11-18 06:53:00
2:53 AM,44.1,35.1,71,29.63,10.0,West,21.9,28.8,N/A,,Overcast,260,2013-11-18 07:53:00
3:53 AM,43.0,34.0,71,29.65,10.0,West,20.7,31.1,N/A,,Overcast,260,2013-11-18 08:53:00
4:36 AM,42.8,32.0,66,29.66,10.0,West,18.4,29.9,N/A,,Overcast,270,2013-11-18 09:36:00
4:53 AM,43.0,33.1,68,29.68,10.0,West,18.4,26.5,N/A,,Overcast,270,2013-11-18 09:53:00
5:02 AM,42.8,33.8,70,29.67,10.0,West,17.3,24.2,N/A,,Overcast,280,2013-11-18 10:02:00
5:38 AM,42.8,33.8,70,29.68,10.0,West,16.1,23.0,N/A,,Overcast,260,2013-11-18 10:38:00
5:53 AM,42.1,32.0,67,29.69,10.0,West,18.4,33.4,N/A,,Overcast,260,2013-11-18 10:53:00
6:53 AM,41.0,33.1,73,29.71,10.0,West,15.0,24.2,N/A,,Overcast,270,2013-11-18 11:53:00
7:53 AM,39.9,28.9,65,29.74,10.0,West,19.6,31.1,N/A,,Overcast,280,2013-11-18 12:53:00
8:00 AM,39.2,28.4,65,29.73,10.0,West,26.5,35.7,N/A,,Overcast,280,2013-11-18 13:00:00
8:48 AM,39.2,28.4,65,29.75,10.0,West,19.6,32.2,N/A,,Overcast,270,2013-11-18 13:48:00
8:53 AM,39.0,28.9,67,29.78,10.0,West,21.9,28.8,N/A,,Overcast,270,2013-11-18 13:53:00
9:53 AM,39.0,28.0,65,29.80,10.0,WNW,19.6,29.9,N/A,,Overcast,290,2013-11-18 14:53:00
10:53 AM,37.9,28.0,68,29.84,10.0,WNW,17.3,29.9,N/A,,Overcast,290,2013-11-18 15:53:00
11:53 AM,37.0,27.0,67,29.87,10.0,WNW,18.4,32.2,0.00,Snow,Light Snow,300,2013-11-18 16:53:00
12:53 PM,37.0,25.0,62,29.90,10.0,WNW,24.2,31.1,0.00,,Overcast,290,2013-11-18 17:53:00
1:53 PM,36.0,26.1,67,29.92,10.0,West,21.9,29.9,N/A,,Overcast,280,2013-11-18 18:53:00
2:53 PM,36.0,25.0,64,29.96,10.0,WNW,21.9,31.1,N/A,,Overcast,290,2013-11-18 19:53:00
3:06 PM,35.6,24.8,65,29.95,10.0,WNW,21.9,29.9,N/A,,Overcast,300,2013-11-18 20:06:00
3:53 PM,35.1,24.1,64,30.00,10.0,WNW,16.1,27.6,N/A,,Overcast,290,2013-11-18 20:53:00
4:53 PM,35.1,23.0,61,30.03,10.0,WNW,16.1,21.9,N/A,,Overcast,290,2013-11-18 21:53:00
5:53 PM,35.1,21.9,59,30.06,10.0,WNW,16.1,25.3,N/A,,Overcast,290,2013-11-18 22:53:00
6:53 PM,35.1,23.0,61,30.09,10.0,WNW,13.8,21.9,N/A,,Overcast,290,2013-11-18 23:53:00
7:53 PM,36.0,23.0,59,30.11,10.0,WNW,15.0,21.9,N/A,,Overcast,290,2013-11-19 00:53:00
8:53 PM,36.0,21.9,57,30.14,10.0,WNW,15.0,21.9,N/A,,Overcast,300,2013-11-19 01:53:00
9:53 PM,36.0,21.9,57,30.15,10.0,West,10.4,18.4,N/A,,Overcast,280,2013-11-19 02:53:00
10:53 PM,36.0,21.9,57,30.17,10.0,WNW,11.5,-,N/A,,Overcast,300,2013-11-19 03:53:00
11:53 PM,35.1,21.9,59,30.19,10.0,NNW,13.8,23.0,N/A,,Overcast,330,2013-11-19 04:53:00